DELTA 1 DEB *, 9703

Orbit data source: Space-Track

DELTA 1 DEB *, 9703 is space debris in LEO originally from a launch on Tue, 06 Nov 1973 UTC launched from the Air Force Western Test Range (AFWTR). Debris objects in space refer to the collection of defunct objects orbiting the Earth. Examples of debris include non-operational satellites, rocket bodies, and fragments generated from explosions, collisions, or faulty payload assembly.

Loading next visibility...
Identifier
9703, 1973-086GB
Orbit
LEO
Country
Flag of USUS
Related business
Manufacturer
Unknown
Mission
Spacecraft
Bus & Motor
Unknown
Mass
Unknown
Launch date (UTC)
1973-11-06 (52 years ago)
Launch vehicle
Unknown
Launch site
Air Force Western Test Range (AFWTR)
Object type
Payload
Rocket body
Debris
Shape & HBR
Unknown shape, 0.1 m
Radar Cross Section
Small (<0.1 m²)

Expand to show TLE details & history
Last TLE update: 11 hours ago

TLE from 11 hours ago
0 DELTA 1 DEB *
1 09703U 73086GB  25292.10228260  .00000230  00000-0  34639-3 0  9997
2 09703  65.7211 174.6131 0128160 347.6076 168.6364 13.67660686551034
Epoch: 2025-10-19T02:27Z
TLE epoch observation values (Epoch: 2025-10-19T02:27:17.216Z)
Latitude
21.31322°
Longitude
-80.11617°
Altitude
1,102.525 km
Speed
7.257 km/s
True Right ascension
22h 58m 07s
True Declination
21° 12' 09"
Sunlit
Object was in full shadow at epoch
Visualization orbit readout
Latitude
Unknown
Longitude
Unknown
Altitude
Unknown
Speed
Unknown
Apparent Right ascension
Unknown
Apparent Declination
Unknown
Sunlit
N/A
Visualization observer readout
Local Sidereal Time
08:24:13
Azimuth
Unknown
Elevation
Unknown
Doppler factor
Unknown
Orbital elements
Apogee altitude
1,101.158 km
Perigee altitude
911.875 km
Semi-major axis
7,384.654 km
Eccentricity
0.01282
Inclination
65.7211°
RAAN
174.6131°
Arg. of periapsis
347.6076°
True anomaly
168.92129°
Mean anomaly
168.6364°
Eccentric anomaly
168.77929°
Mean motion
3.42017 °/min
Orbital period
105.26 mins
BSTAR
0.00034639
Loading maneuver chart data...
Computing Atmospheric mass density...
Loading historical data...
Loading historical data...
Loading historical data...
Loading historical data...
Loading historical data...
Loading historical data...
Loading historical data...

Documentation

Showing up to 5 results
|